Showing default

ASNARO, 40298

Orbit data source: Space-Track

ASNARO, 40298 is a payload satellite owned by J-spacesystems (JP) in SSO that was launched on Thu, 06 Nov 2014 UTC via a DNEPR launch vehicle from the Orenburg, Russia (OREN). Payload-class satellites include a variety of spacecraft equipped with specific instruments for various scientific and technological missions. These include communications satellites like Starlink; space stations such as the ISS; scientific satellites like the Hubble; Earth observation satellites from companies like Planet Labs, Umbra, and HawkEye 360; GPS; miniature CubeSats for education and research; and military/defense satellites.

Loading next visibility...
Identifier
40298, 2014-070A
Orbit
SSO
Last TLE update
8 hours ago
Origin
Manufacturer
NEC Toshiba/Fuchu
Mission
Operational Civil Imaging
Bus & Motor
NEXTAR-300L, AOCS?
Mass
495 kg wet, 450 kg dry
Launch date (UTC)
2014-11-06 (11 years ago)
Launch vehicle
DNEPR
Launch site
Orenburg, Russia (OREN)
Object type
Payload
Rocket body
Debris
Shape & HBR
Cyl + 2 Pan, 3.5 m
Radar Cross Section
9.327 m², Large (>1 m²)

Expand to show TLE details & history

TLE from 8 hours ago
0 ASNARO
1 40298U 14070A   25183.89243903  .00008113  00000-0  38466-3 0  9995
2 40298  97.3786 263.6562 0001954 281.8520  78.2496 15.19544697590988
Epoch: 2025-07-02T21:25Z
TLE epoch observation values (Epoch: 2025-07-02T21:25:06.732Z)
Latitude
0.00002°
Longitude
21.21113°
Altitude
510.032 km
Speed
7.609 km/s
True Right ascension
17h 34m 37s
True Declination
0° 00' 00"
Sunlit
Object was in full shadow at epoch
Visualization orbit readout
Latitude
70.41239°
Longitude
-137.2296°
Altitude
520.714 km
Speed
7.609 km/s
Apparent Right ascension
06h 01m 16s
Apparent Declination
18° 42' 51"
Sunlit
Object is in daylight
Visualization observer readout
Local Sidereal Time
17:33:18
Azimuth
352.27° N
Elevation
-31.008°
Doppler factor
1
Orbital elements
Apogee altitude
505.526 km
Perigee altitude
502.836 km
Semi-major axis
6,882.318 km
Eccentricity
0.0002
Inclination
97.3786°
RAAN
263.6562°
Arg. of periapsis
281.852°
True anomaly
Unknown
Mean anomaly
78.2496°
Eccentric anomaly
Unknown
Mean motion
3.80138 °/min
Orbital period
94.7 mins
BSTAR
0.00038466
Loading maneuver chart data...
Loading SW <> Apogee altitude chart data...
Loading historical data...
Loading historical data...
Loading historical data...
Loading historical data...
Loading historical data...
Loading historical data...
Loading historical data...

ASNARO Visibility forecast

Observer location: undefined°, undefined°

Span
Click to sort rows by Start time (UTC) header in descending order
Start Az.
Max El. time (UTC)
Max El. Az.
Max El.
End time (UTC)
End Az.
6 mins2025-07-03 18:31:44.164Z355.704° N2025-07-03 18:34:44.164Z264.705° W36.084°2025-07-03 18:37:44.164Z211.386° SW
5 mins2025-07-04 05:10:44.164Z143.477° SSE2025-07-04 05:12:44.164Z45.327° ENE39.432°2025-07-04 05:15:44.164Z356.719° N
|